FW3961 Weather Reports


Display with metric or nautical units.
time (UTC)temp
F
wind
direction
speed
MPH
gust
MPH
rain 1hr
in
rain 24hr
in
rain mn
in
humidity
%
barometer
mb
20260506031911 60 13 0.0 0.0 0.00 0.00 0.00 79 1016.8
20260506031406 61 13 0.0 0.0 0.00 0.00 0.00 79 1016.8
20260506031231 61 13 0.0 0.0 0.00 0.00 0.00 78 1016.6
20260506031126 61 13 0.0 1.0 0.00 0.00 0.00 78 1016.7
20260506025847 61 13 0.0 2.0 0.00 0.00 0.00 78 1016.5
20260506025342 62 13 1.0 2.0 0.00 0.00 0.00 78 1016.5
20260506024836 62 13 0.0 2.0 0.00 0.00 0.00 77 1016.5
20260506024330 62 13 1.0 2.0 0.00 0.00 0.00 77 1016.5
20260506024325 62 13 0.0 2.0 0.00 0.00 0.00 76 1016.5
20260506023318 63 12 1.0 4.0 0.00 0.00 0.00 75 1016.5
20260506022812 63 13 1.0 4.0 0.00 0.00 0.00 75 1016.5
20260506022306 63 48 1.0 3.0 0.00 0.00 0.00 75 1016.5
20260506021802 63 50 1.0 3.0 0.00 0.00 0.00 75 1016.6
20260506021253 63 50 1.0 5.0 0.00 0.00 0.00 74 1016.5
20260506020748 63 67 2.0 5.0 0.00 0.00 0.00 74 1016.5
20260506020242 64 65 2.0 4.0 0.00 0.00 0.00 74 1016.5
20260506015735 64 86 2.0 5.0 0.00 0.00 0.00 73 1016.4
20260506015230 64 75 1.0 5.0 0.00 0.00 0.00 73 1016.5
20260506014723 64 202 0.0 3.0 0.00 0.00 0.00 74 1016.4
20260506014218 64 127 1.0 3.0 0.00 0.00 0.00 73 1016.4
20260506013715 64 130 1.0 3.0 0.00 0.00 0.00 72 1016.4
20260506013206 65 80 1.0 5.0 0.00 0.00 0.00 72 1016.4
20260506012700 65 80 2.0 5.0 0.00 0.00 0.00 72 1016.4
20260506012154 65 29 1.0 3.0 0.00 0.00 0.00 71 1016.4
20260506011647 66 121 1.0 3.0 0.00 0.00 0.00 71 1016.4
20260506011142 66 126 1.0 3.0 0.00 0.00 0.00 71 1016.3
20260506010636 66 133 1.0 3.0 0.00 0.00 0.00 69 1016.3
20260506010130 67 61 1.0 4.0 0.00 0.00 0.00 69 1016.3
20260506005624 67 68 1.0 4.0 0.00 0.00 0.00 69 1016.3
20260506005449 67 290 1.0 3.0 0.00 0.00 0.00 68 1016.5
20260506005345 67 223 1.0 4.0 0.00 0.00 0.00 70 1016.4
20260506004105 67 18 1.0 4.0 0.00 0.00 0.00 70 1016.4
20260506003600 67 69 2.0 4.0 0.00 0.00 0.00 69 1016.4
20260506003054 67 55 2.0 3.0 0.00 0.00 0.00 69 1016.4
20260506002547 67 54 1.0 3.0 0.00 0.00 0.00 68 1016.4
20260506002042 68 103 1.0 3.0 0.00 0.00 0.00 68 1016.4
20260506001536 68 346 1.0 2.0 0.00 0.00 0.00 68 1016.6
20260506001030 68 84 1.0 3.0 0.00 0.00 0.00 69 1016.6
20260506000525 68 55 1.0 3.0 0.00 0.00 0.00 69 1016.5
20260506000017 68 111 1.0 3.0 0.00 0.00 0.00 68 1016.6
20260505235513 67 232 1.0 3.0 0.00 0.00 0.00 70 1016.7
20260505235006 67 66 1.0 3.0 0.00 0.00 0.00 71 1016.7
20260505234459 66 184 0.0 2.0 0.00 0.00 0.00 72 1016.9
20260505233954 65 183 1.0 3.0 0.00 0.00 0.00 71 1016.9
20260505233448 65 72 1.0 3.0 0.00 0.00 0.00 72 1017.0
20260505232942 65 56 1.0 3.0 0.00 0.00 0.00 73 1017.0
20260505232438 65 307 1.0 3.0 0.00 0.00 0.00 72 1016.9
20260505231936 65 67 1.0 3.0 0.00 0.00 0.00 73 1017.0
20260505231436 64 303 1.0 3.0 0.00 0.00 0.00 72 1016.9
20260505230937 64 290 1.0 3.0 0.00 0.00 0.00 72 1016.9
20260505230440 64 5 1.0 4.0 0.00 0.00 0.00 73 1017.1
20260505230435 64 355 1.0 3.0 0.00 0.00 0.00 73 1017.0
20260505225436 64 296 1.0 4.0 0.00 0.00 0.00 74 1017.0
20260505224935 64 111 1.0 3.0 0.00 0.00 0.00 74 1017.0
20260505224436 64 29 1.0 3.0 0.00 0.00 0.00 74 1017.1
20260505223935 63 42 1.0 3.0 0.00 0.00 0.00 75 1017.1
20260505223436 63 42 1.0 3.0 0.00 0.00 0.00 74 1017.1
20260505222932 63 68 1.0 3.0 0.00 0.00 0.00 74 1017.1
20260505222432 63 298 1.0 3.0 0.00 0.00 0.00 74 1017.1
20260505221936 63 0 1.0 4.0 0.00 0.00 0.00 74 1017.2
20260505221931 63 296 1.0 4.0 0.00 0.00 0.00 74 1017.2
20260505220932 63 261 0.0 2.0 0.00 0.00 0.00 74 1017.3
20260505220431 63 252 1.0 3.0 0.00 0.00 0.00 74 1017.2
20260505215939 63 262 1.0 3.0 0.00 0.00 0.00 73 1017.3
20260505215932 63 179 0.0 3.0 0.00 0.00 0.00 73 1017.3
20260505214932 63 263 1.0 3.0 0.00 0.00 0.00 74 1017.3
20260505214433 63 355 1.0 4.0 0.00 0.00 0.00 74 1017.2
20260505213930 63 355 1.0 4.0 0.00 0.00 0.00 74 1017.3
20260505213429 63 347 1.0 3.0 0.00 0.00 0.00 74 1017.3
20260505212930 63 355 1.0 3.0 0.00 0.00 0.00 74 1017.4
20260505212430 63 328 1.0 3.0 0.00 0.00 0.00 75 1017.4
20260505211930 63 331 1.0 4.0 0.00 0.00 0.00 74 1017.4
20260505211427 62 288 1.0 4.0 0.00 0.00 0.00 75 1017.5
20260505210927 62 313 1.0 3.0 0.00 0.00 0.00 75 1017.5
20260505210429 62 327 1.0 3.0 0.00 0.00 0.00 76 1017.5
20260505205926 62 325 1.0 3.0 0.00 0.00 0.00 75 1017.5
20260505205429 62 275 1.0 3.0 0.00 0.00 0.00 76 1017.5
20260505205423 62 321 0.0 3.0 0.00 0.00 0.00 76 1017.5
20260505204421 62 276 1.0 3.0 0.00 0.00 0.00 75 1017.5
20260505203922 62 262 1.0 4.0 0.00 0.00 0.00 76 1017.6
20260505203428 62 214 1.0 4.0 0.00 0.00 0.00 77 1017.5
20260505203424 62 306 1.0 4.0 0.00 0.00 0.00 76 1017.6
20260505202418 61 324 1.0 4.0 0.00 0.00 0.00 77 1017.6
20260505201912 61 311 1.0 3.0 0.00 0.00 0.00 77 1017.6
20260505201406 61 338 1.0 3.0 0.00 0.00 0.00 77 1017.6
20260505200900 61 338 1.0 3.0 0.00 0.00 0.00 77 1017.7
20260505200356 61 338 1.0 3.0 0.00 0.00 0.00 77 1017.7
20260505200227 61 200 1.0 3.0 0.00 0.00 0.00 77 1017.7
20260505200119 61 305 1.0 3.0 0.00 0.00 0.00 77 1017.6
20260505195337 61 329 1.0 3.0 0.00 0.00 0.00 77 1017.6
20260505194329 61 200 1.0 3.0 0.00 0.00 0.00 77 1017.7
20260505193824 60 315 1.0 3.0 0.00 0.00 0.00 76 1017.7
20260505193319 61 315 1.0 3.0 0.00 0.00 0.00 77 1017.7
20260505192812 61 328 1.0 4.0 0.00 0.00 0.00 77 1017.7
20260505192307 61 234 1.0 4.0 0.00 0.00 0.00 77 1017.7
20260505191800 60 267 1.0 3.0 0.00 0.00 0.00 77 1017.7
20260505191253 60 281 1.0 3.0 0.00 0.00 0.00 77 1017.7
20260505190748 60 296 0.0 2.0 0.00 0.00 0.00 78 1017.7
20260505190242 60 270 0.0 2.0 0.00 0.00 0.00 79 1017.7
20260505185735 60 141 0.0 2.0 0.00 0.00 0.00 78 1017.7
20260505185230 60 157 0.0 1.0 0.00 0.00 0.00 79 1017.7
20260505184723 60 153 0.0 2.0 0.00 0.00 0.00 79 1017.7
20260505184218 59 153 1.0 2.0 0.00 0.00 0.00 80 1017.6
20260505183714 59 153 0.0 2.0 0.00 0.00 0.00 79 1017.6
20260505183707 59 155 1.0 3.0 0.00 0.00 0.00 80 1017.6
20260505182659 59 144 1.0 3.0 0.00 0.00 0.00 80 1017.6
20260505182153 59 209 1.0 3.0 0.00 0.00 0.00 80 1017.6
20260505181649 59 211 0.0 3.0 0.00 0.00 0.00 80 1017.6
20260505181145 58 202 0.0 2.0 0.00 0.00 0.00 80 1017.5
20260505181138 58 204 1.0 3.0 0.00 0.00 0.00 79 1017.5
20260505180132 59 219 1.0 3.0 0.00 0.00 0.00 80 1017.5
20260505180125 59 200 0.0 2.0 0.00 0.00 0.00 80 1017.5
20260505175118 58 161 0.0 1.0 0.00 0.00 0.00 80 1017.5
20260505174612 58 162 0.0 2.0 0.00 0.00 0.00 81 1017.6
20260505174105 58 161 0.0 2.0 0.00 0.00 0.00 81 1017.4
20260505173600 58 157 1.0 3.0 0.00 0.00 0.00 82 1017.3
20260505173053 58 156 1.0 4.0 0.00 0.00 0.00 81 1017.3
20260505172548 58 165 0.0 4.0 0.00 0.00 0.00 81 1017.4
20260505172043 58 213 0.0 2.0 0.00 0.00 0.00 82 1017.3
20260505171535 58 215 0.0 2.0 0.00 0.00 0.00 82 1017.3
20260505171030 58 215 0.0 2.0 0.00 0.00 0.00 83 1017.3
20260505170523 57 216 0.0 2.0 0.00 0.00 0.00 84 1017.3
20260505170020 57 214 0.0 1.0 0.00 0.00 0.00 84 1017.2
20260505170013 57 214 0.0 1.0 0.00 0.00 0.00 84 1017.2
20260505165006 56 214 0.0 3.0 0.00 0.00 0.00 84 1017.4
20260505164501 56 214 0.0 3.0 0.00 0.00 0.00 84 1017.3
20260505163954 56 221 0.0 2.0 0.00 0.00 0.00 84 1017.2
20260505163448 56 221 0.0 2.0 0.00 0.00 0.00 85 1017.2
20260505163321 56 217 0.0 2.0 0.00 0.00 0.00 85 1017.2
20260505163212 56 221 0.0 2.0 0.00 0.00 0.00 85 1017.2
20260505161930 55 207 0.0 2.0 0.00 0.00 0.00 86 1017.1
20260505161428 55 208 0.0 3.0 0.00 0.00 0.00 86 1017.2
20260505160926 55 208 0.0 3.0 0.00 0.00 0.00 86 1017.1
20260505160424 55 207 0.0 2.0 0.00 0.00 0.00 86 1017.2
20260505152924 54 209 1.0 4.0 0.00 0.00 0.00 88 1017.1
20260505152427 54 185 0.0 3.0 0.00 0.00 0.00 89 1017.0
20260505152423 54 188 1.0 4.0 0.00 0.00 0.00 88 1017.1
20260505151418 54 178 0.0 0.0 0.00 0.00 0.00 89 1017.1
20260505150918 54 178 0.0 0.0 0.00 0.00 0.00 90 1017.0
20260505150419 54 177 0.0 0.0 0.00 0.00 0.00 90 1017.1
20260505140412 53 225 0.0 0.0 0.00 0.00 0.00 91 1016.6
20260505124823 53 225 0.0 1.0 0.00 0.00 0.00 90 1016.2
20260505124319 53 225 0.0 1.0 0.00 0.00 0.00 89 1016.3
20260505124313 53 225 0.0 1.0 0.00 0.00 0.00 89 1016.1
20260505123304 53 225 0.0 1.0 0.00 0.00 0.00 90 1016.1
20260505122759 53 225 0.0 1.0 0.00 0.00 0.00 89 1016.2
20260505122253 53 225 0.0 0.0 0.00 0.00 0.00 90 1016.2
20260505121747 53 225 0.0 1.0 0.00 0.00 0.00 90 1016.1
20260505121242 53 225 0.0 1.0 0.00 0.00 0.00 90 1016.1
20260505120734 53 225 0.0 1.0 0.00 0.00 0.00 90 1016.0
20260505120231 53 230 0.0 1.0 0.00 0.00 0.00 89 1016.1
20260505120225 53 230 0.0 1.0 0.00 0.00 0.00 89 1016.0
20260505115217 53 230 0.0 1.0 0.00 0.00 0.00 89 1016.0
20260505114712 53 230 0.0 1.0 0.00 0.00 0.00 89 1016.0
20260505114209 53 230 0.0 1.0 0.00 0.00 0.00 90 1016.1
20260505114203 53 230 0.0 1.0 0.00 0.00 0.00 90 1016.1
20260505113154 53 230 0.0 1.0 0.00 0.00 0.00 90 1016.0
20260505113149 53 228 0.0 1.0 0.00 0.00 0.00 89 1016.1
20260505112141 53 228 0.0 1.0 0.00 0.00 0.00 89 1016.0
20260505111634 53 228 0.0 1.0 0.00 0.00 0.00 89 1016.0
20260505111129 53 228 0.0 2.0 0.00 0.00 0.00 90 1016.0
20260505110625 53 228 0.0 2.0 0.00 0.00 0.00 90 1016.0
20260505110619 53 217 0.0 1.0 0.00 0.00 0.00 89 1015.9
20260505102029 53 186 0.0 2.0 0.00 0.00 0.00 90 1015.8
20260505101523 53 186 0.0 1.0 0.00 0.00 0.00 91 1015.7
20260505101017 53 163 0.0 1.0 0.00 0.00 0.00 91 1015.7
20260505100511 53 163 0.0 1.0 0.00 0.00 0.00 91 1015.7
20260505100006 53 163 0.0 0.0 0.00 0.00 0.00 91 1015.7
20260505095500 53 163 0.0 0.0 0.00 0.00 0.00 91 1015.8
20260505094954 53 162 0.0 2.0 0.00 0.00 0.00 91 1015.7
20260505094447 53 162 1.0 2.0 0.00 0.00 0.00 91 1015.7
20260505093941 53 162 0.0 2.0 0.00 0.00 0.00 91 1015.7
20260505093437 53 162 0.0 2.0 0.00 0.00 0.00 91 1015.7
20260505092938 53 162 0.0 4.0 0.00 0.00 0.00 90 1015.6
20260505092436 53 162 1.0 4.0 0.00 0.00 0.00 91 1015.6
20260505091935 53 163 1.0 3.0 0.00 0.00 0.00 91 1015.6
20260505091437 53 163 1.0 3.0 0.00 0.00 0.00 91 1015.6
20260505090936 53 172 1.0 2.0 0.00 0.00 0.00 91 1015.5
20260505090437 52 172 1.0 2.0 0.00 0.00 0.00 91 1015.5
20260505085936 52 172 1.0 2.0 0.00 0.00 0.00 91 1015.5
20260505085435 52 172 1.0 2.0 0.00 0.00 0.00 91 1015.5
20260505084936 52 234 0.0 1.0 0.00 0.00 0.00 91 1015.6
20260505084436 52 234 0.0 1.0 0.00 0.00 0.00 91 1015.6
20260505083941 52 234 0.0 1.0 0.00 0.00 0.00 91 1015.6
20260505083936 52 234 0.0 1.0 0.00 0.00 0.00 91 1015.6
20260505082936 52 234 0.0 1.0 0.00 0.00 0.00 91 1015.5
20260505082436 52 234 0.0 1.0 0.00 0.00 0.00 91 1015.4
20260505081934 52 234 0.0 1.0 0.00 0.00 0.00 91 1015.3
20260505081431 52 234 0.0 1.0 0.00 0.00 0.00 91 1015.3
20260505080932 52 234 0.0 2.0 0.00 0.00 0.00 91 1015.4
20260505080430 52 234 0.0 2.0 0.00 0.00 0.00 91 1015.2
20260505075933 52 243 0.0 2.0 0.00 0.00 0.00 91 1015.3
20260505075432 52 248 0.0 1.0 0.00 0.00 0.00 91 1015.3
20260505074933 52 248 0.0 3.0 0.00 0.00 0.00 91 1015.2
20260505074433 52 248 0.0 3.0 0.00 0.00 0.00 91 1015.2
20260505073930 52 144 0.0 1.0 0.00 0.00 0.00 91 1015.1
20260505073429 52 144 0.0 1.0 0.00 0.00 0.00 91 1015.2
20260505072931 52 144 0.0 2.0 0.00 0.00 0.00 91 1015.2
20260505072430 51 143 1.0 3.0 0.00 0.00 0.00 91 1015.1
20260505071929 51 155 1.0 3.0 0.00 0.00 0.00 91 1015.1
20260505071431 51 158 1.0 4.0 0.00 0.00 0.00 91 1015.0
20260505070929 51 158 1.0 4.0 0.00 0.00 0.00 90 1014.9
20260505070429 51 165 1.0 4.0 0.00 0.00 0.00 90 1014.9
20260505065926 51 173 1.0 2.0 0.00 0.00 0.00 90 1014.9
20260505065426 52 173 1.0 2.0 0.00 0.00 0.00 90 1014.8
20260505064933 52 173 0.0 2.0 0.00 0.00 0.00 89 1014.8
20260505064929 52 173 0.0 2.0 0.00 0.00 0.00 89 1014.8
20260505064807 52 173 1.0 2.0 0.00 0.00 0.00 89 1014.8
20260505063420 52 173 0.0 2.0 0.00 0.00 0.00 88 1014.7
20260505062917 53 173 1.0 3.0 0.00 0.00 0.00 88 1014.7
20260505062912 53 173 1.0 3.0 0.00 0.00 0.00 87 1014.7
20260505061903 53 180 0.0 2.0 0.00 0.00 0.00 86 1014.6
20260505061356 53 212 0.0 1.0 0.00 0.00 0.00 86 1014.7
20260505060854 53 212 0.0 0.0 0.00 0.00 0.00 85 1014.7
20260505060345 53 212 0.0 1.0 0.00 0.00 0.00 85 1014.7
20260505055840 54 212 0.0 1.0 0.00 0.00 0.00 85 1014.7
20260505055333 54 212 0.0 1.0 0.00 0.00 0.00 85 1014.7
20260505054827 54 212 0.0 0.0 0.00 0.00 0.00 84 1014.7
20260505054320 54 212 0.0 0.0 0.00 0.00 0.00 84 1014.8
20260505053813 54 212 0.0 0.0 0.00 0.00 0.00 84 1014.8
20260505053308 54 212 0.0 0.0 0.00 0.00 0.00 84 1014.8
20260505052801 54 212 0.0 1.0 0.00 0.00 0.00 84 1014.7
20260505052255 55 212 0.0 2.0 0.00 0.00 0.00 84 1014.7
20260505051749 55 212 0.0 2.0 0.00 0.00 0.00 83 1014.7
20260505051243 55 196 0.0 2.0 0.00 0.00 0.00 83 1014.7
20260505050736 55 188 0.0 1.0 0.00 0.00 0.00 83 1014.8
20260505050231 55 207 0.0 2.0 0.00 0.00 0.00 82 1014.6
20260505041638 57 201 1.0 3.0 0.00 0.00 0.00 81 1013.8
20260505041131 58 206 1.0 3.0 0.00 0.00 0.00 81 1013.6
20260505040626 58 207 0.0 3.0 0.00 0.00 0.00 80 1013.5
20260505040120 59 211 0.0 3.0 0.00 0.00 0.00 80 1013.5
20260505035615 59 221 0.0 2.0 0.00 0.00 0.00 79 1013.5
20260505035109 60 227 0.0 2.0 0.00 0.00 0.00 78 1013.5
20260505035104 60 203 1.0 2.0 0.00 0.00 0.00 78 1013.3
20260505034056 60 204 0.0 2.0 0.00 0.00 0.00 77 1013.2
20260505034051 61 205 0.0 3.0 0.00 0.00 0.00 77 1013.1
20260505033043 61 202 1.0 5.0 0.00 0.00 0.00 77 1013.1
20260505032536 62 256 1.0 5.0 0.00 0.00 0.00 76 1013.1